| time (UTC) | temp C | wind direction | speed KPH | gust KPH | rain 1hr cm | rain 24hr cm | rain mn cm | humidity % | barometer mb |
| 20260902101514 | 15 | 144 | 11.3 | 25.7 | 0.00 | 0.00 | 0.00 | 66 | 1007.3 |
| 20260902100018 | 15 | 105 | 12.9 | 29.0 | 0.00 | 0.00 | 0.00 | 64 | 1007.4 |
| 20260902094516 | 15 | 178 | 9.7 | 27.4 | 0.00 | 0.00 | 0.00 | 63 | 1007.4 |
| 20260902093033 | 15 | 188 | 9.7 | 25.7 | 0.00 | 0.00 | 0.00 | 62 | 1007.2 |
| 20260902091531 | 16 | 136 | 6.4 | 24.1 | 0.00 | 0.00 | 0.00 | 61 | 1007.3 |
| 20260902090020 | 16 | 142 | 8.0 | 14.5 | 0.00 | 0.00 | 0.00 | 62 | 1007.6 |
| 20260902084502 | 16 | 199 | 6.4 | 20.9 | 0.00 | 0.00 | 0.00 | 62 | 1007.6 |
| 20260902083006 | 16 | 229 | 6.4 | 17.7 | 0.00 | 0.00 | 0.00 | 62 | 1007.6 |
| 20260902081504 | 16 | 115 | 8.0 | 24.1 | 0.00 | 0.00 | 0.00 | 61 | 1007.4 |
| 20260902080008 | 16 | 171 | 9.7 | 22.5 | 0.00 | 0.00 | 0.00 | 58 | 1007.5 |
| 20260902074505 | 17 | 161 | 9.7 | 24.1 | 0.00 | 0.00 | 0.00 | 58 | 1007.5 |
| 20260902073004 | 17 | 149 | 9.7 | 20.9 | 0.00 | 0.00 | 0.00 | 58 | 1007.3 |
| 20260902071504 | 17 | 186 | 8.0 | 22.5 | 0.00 | 0.00 | 0.00 | 57 | 1007.2 |
| 20260902070006 | 17 | 238 | 8.0 | 22.5 | 0.00 | 0.00 | 0.00 | 55 | 1006.9 |
| 20260902064507 | 17 | 215 | 8.0 | 25.7 | 0.00 | 0.00 | 0.00 | 54 | 1007.0 |
| 20260902063003 | 18 | 240 | 11.3 | 24.1 | 0.00 | 0.00 | 0.00 | 54 | 1006.4 |
| 20260902061507 | 18 | 159 | 9.7 | 27.4 | 0.00 | 0.00 | 0.00 | 53 | 1006.3 |
| 20260902060013 | 18 | 167 | 11.3 | 35.4 | 0.00 | 0.00 | 0.00 | 51 | 1006.2 |
| 20260902054508 | 18 | 143 | 12.9 | 33.8 | 0.00 | 0.00 | 0.00 | 51 | 1006.2 |
| 20260902053003 | 19 | 175 | 12.9 | 33.8 | 0.00 | 0.00 | 0.00 | 51 | 1006.1 |
| 20260902051506 | 19 | 163 | 14.5 | 37.0 | 0.00 | 0.00 | 0.00 | 51 | 1006.0 |
| 20260902050008 | 20 | 188 | 14.5 | 30.6 | 0.00 | 0.00 | 0.00 | 50 | 1005.9 |
| 20260902044531 | 20 | 176 | 12.9 | 25.7 | 0.00 | 0.00 | 0.00 | 48 | 1005.9 |
| 20260902043013 | 20 | 169 | 12.9 | 32.2 | 0.00 | 0.00 | 0.00 | 47 | 1005.7 |
| 20260902041503 | 21 | 240 | 9.7 | 25.7 | 0.00 | 0.00 | 0.00 | 45 | 1005.5 |
| 20260902040007 | 21 | 189 | 12.9 | 27.4 | 0.00 | 0.00 | 0.00 | 42 | 1005.4 |
| 20260902034505 | 22 | 177 | 9.7 | 29.0 | 0.00 | 0.00 | 0.00 | 40 | 1005.3 |
| 20260902033004 | 22 | 206 | 11.3 | 20.9 | 0.00 | 0.00 | 0.00 | 37 | 1005.2 |
| 20260902031535 | 23 | 205 | 8.0 | 19.3 | 0.00 | 0.00 | 0.00 | 35 | 1005.4 |
| 20260902030004 | 23 | 153 | 9.7 | 17.7 | 0.00 | 0.00 | 0.00 | 34 | 1005.1 |
| 20260902024507 | 24 | 139 | 6.4 | 20.9 | 0.00 | 0.00 | 0.00 | 34 | 1005.0 |
| 20260902023015 | 25 | 175 | 6.4 | 17.7 | 0.00 | 0.00 | 0.00 | 33 | 1004.9 |
| 20260902021515 | 25 | 178 | 3.2 | 11.3 | 0.00 | 0.00 | 0.00 | 34 | 1005.0 |
| 20260902020010 | 26 | 153 | 0.0 | 4.8 | 0.00 | 0.00 | 0.00 | 35 | 1005.0 |
| 20260902014521 | 26 | 175 | 0.0 | 6.4 | 0.00 | 0.00 | 0.00 | 34 | 1005.0 |
| 20260902013011 | 27 | 173 | 3.2 | 8.0 | 0.00 | 0.00 | 0.00 | 32 | 1005.0 |
| 20260902011518 | 27 | 178 | 1.6 | 9.7 | 0.00 | 0.00 | 0.00 | 31 | 1005.0 |
| 20260902010023 | 27 | 162 | 0.0 | 8.0 | 0.00 | 0.00 | 0.00 | 33 | 1005.0 |
| 20260902004518 | 27 | 180 | 1.6 | 8.0 | 0.00 | 0.00 | 0.00 | 32 | 1005.1 |
| 20260902003011 | 27 | 167 | 1.6 | 4.8 | 0.00 | 0.00 | 0.00 | 32 | 1005.1 |
| 20260902001515 | 27 | 157 | 0.0 | 1.6 | 0.00 | 0.00 | 0.00 | 38 | 1005.1 |
| 20260902000034 | 28 | 155 | 0.0 | 4.8 | 0.00 | 0.00 | 0.00 | 37 | 1005.2 |
| 20260901234545 | 28 | 153 | 0.0 | 3.2 | 0.00 | 0.00 | 0.00 | 35 | 1005.2 |
| 20260901233024 | 28 | 130 | 0.0 | 6.4 | 0.00 | 0.00 | 0.00 | 32 | 1005.2 |
| 20260901231513 | 28 | 123 | 0.0 | 1.6 | 0.00 | 0.00 | 0.00 | 29 | 1005.3 |
| 20260901230008 | 28 | 142 | 0.0 | 6.4 | 0.00 | 0.00 | 0.00 | 29 | 1005.5 |
| 20260901224502 | 27 | 167 | 3.2 | 11.3 | 0.00 | 0.00 | 0.00 | 30 | 1005.5 |
| 20260901223003 | 27 | 172 | 3.2 | 11.3 | 0.00 | 0.00 | 0.00 | 34 | 1005.7 |
| 20260901221505 | 27 | 159 | 4.8 | 14.5 | 0.00 | 0.00 | 0.00 | 33 | 1005.9 |
| 20260901220002 | 27 | 180 | 4.8 | 14.5 | 0.00 | 0.00 | 0.00 | 34 | 1005.8 |
| 20260901214503 | 26 | 171 | 1.6 | 11.3 | 0.00 | 0.00 | 0.00 | 38 | 1005.9 |
| 20260901213003 | 26 | 161 | 1.6 | 12.9 | 0.00 | 0.00 | 0.00 | 37 | 1006.1 |
| 20260901211502 | 26 | 191 | 4.8 | 11.3 | 0.00 | 0.00 | 0.00 | 39 | 1006.2 |
| 20260901210004 | 25 | 192 | 0.0 | 9.7 | 0.00 | 0.00 | 0.00 | 41 | 1006.4 |
| 20260901204503 | 25 | 268 | 0.0 | 4.8 | 0.00 | 0.00 | 0.00 | 44 | 1006.7 |
| 20260901203003 | 25 | 203 | 0.0 | 12.9 | 0.00 | 0.00 | 0.00 | 43 | 1006.8 |
| 20260901201509 | 23 | 155 | 6.4 | 14.5 | 0.00 | 0.00 | 0.00 | 45 | 1007.0 |
| 20260901200003 | 22 | 200 | 0.0 | 9.7 | 0.00 | 0.00 | 0.00 | 50 | 1007.3 |
| 20260901194507 | 22 | 171 | 3.2 | 11.3 | 0.00 | 0.00 | 0.00 | 50 | 1007.6 |
| 20260901193004 | 21 | 180 | 1.6 | 12.9 | 0.00 | 0.00 | 0.00 | 51 | 1007.7 |
| 20260901191505 | 21 | 163 | 4.8 | 14.5 | 0.00 | 0.00 | 0.00 | 52 | 1007.7 |
| 20260901190003 | 21 | 175 | 4.8 | 19.3 | 0.00 | 0.00 | 0.00 | 52 | 1007.7 |
| 20260901184504 | 21 | 177 | 4.8 | 22.5 | 0.00 | 0.00 | 0.00 | 52 | 1007.5 |
| 20260901183003 | 21 | 174 | 6.4 | 16.1 | 0.00 | 0.00 | 0.00 | 52 | 1007.5 |
| 20260901181503 | 21 | 182 | 6.4 | 14.5 | 0.00 | 0.00 | 0.00 | 53 | 1007.7 |
| 20260901180003 | 21 | 192 | 4.8 | 14.5 | 0.00 | 0.00 | 0.00 | 52 | 1007.6 |
| 20260901174508 | 20 | 182 | 6.4 | 17.7 | 0.00 | 0.00 | 0.00 | 52 | 1007.7 |
| 20260901173005 | 21 | 177 | 8.0 | 17.7 | 0.00 | 0.00 | 0.00 | 50 | 1007.8 |
| 20260901171502 | 21 | 210 | 6.4 | 14.5 | 0.00 | 0.00 | 0.00 | 45 | 1008.0 |
| 20260901170007 | 21 | 177 | 1.6 | 9.7 | 0.00 | 0.00 | 0.00 | 43 | 1007.4 |
| 20260901164504 | 21 | 150 | 3.2 | 9.7 | 0.00 | 0.00 | 0.00 | 41 | 1007.5 |
| 20260901163005 | 22 | 173 | 3.2 | 9.7 | 0.00 | 0.00 | 0.00 | 40 | 1007.6 |
| 20260901161521 | 21 | 170 | 0.0 | 11.3 | 0.00 | 0.00 | 0.00 | 41 | 1007.6 |
| 20260901160015 | 21 | 203 | 0.0 | 6.4 | 0.00 | 0.00 | 0.00 | 43 | 1007.7 |
| 20260901154507 | 20 | 174 | 0.0 | 9.7 | 0.00 | 0.00 | 0.00 | 43 | 1007.4 |
| 20260901153007 | 19 | 147 | 0.0 | 8.0 | 0.00 | 0.00 | 0.00 | 45 | 1007.4 |
| 20260901151508 | 17 | 163 | 0.0 | 4.8 | 0.00 | 0.00 | 0.00 | 49 | 1007.4 |
| 20260901150011 | 16 | 143 | 0.0 | 0.0 | 0.00 | 0.00 | 0.00 | 57 | 1007.3 |
| 20260901144513 | 16 | 143 | 0.0 | 0.0 | 0.00 | 0.00 | 0.00 | 56 | 1007.3 |
| 20260901143011 | 16 | 143 | 0.0 | 0.0 | 0.00 | 0.00 | 0.00 | 57 | 1007.2 |
| 20260901141511 | 16 | 61 | 0.0 | 0.0 | 0.00 | 0.00 | 0.00 | 56 | 1007.2 |
| 20260901140004 | 16 | 61 | 0.0 | 0.0 | 0.00 | 0.00 | 0.00 | 57 | 1007.0 |
| 20260901134511 | 16 | 61 | 0.0 | 0.0 | 0.00 | 0.00 | 0.00 | 56 | 1006.9 |
| 20260901133009 | 16 | 61 | 0.0 | 0.0 | 0.00 | 0.00 | 0.00 | 54 | 1006.8 |
| 20260901131508 | 16 | 320 | 0.0 | 0.0 | 0.00 | 0.00 | 0.00 | 56 | 1007.1 |
| 20260901130006 | 16 | 180 | 3.2 | 16.1 | 0.00 | 0.00 | 0.00 | 55 | 1007.2 |
| 20260901124504 | 16 | 169 | 0.0 | 0.0 | 0.00 | 0.00 | 0.00 | 58 | 1006.7 |
| 20260901123003 | 16 | 169 | 0.0 | 0.0 | 0.00 | 0.00 | 0.00 | 57 | 1006.6 |
| 20260901121513 | 17 | 169 | 0.0 | 0.0 | 0.00 | 0.00 | 0.00 | 55 | 1006.6 |
| 20260901120013 | 17 | 169 | 0.0 | 0.0 | 0.00 | 0.00 | 0.00 | 60 | 1006.8 |
| 20260901114504 | 17 | 170 | 0.0 | 0.0 | 0.00 | 0.00 | 0.00 | 48 | 1006.7 |
| 20260901113016 | 17 | 170 | 0.0 | 0.0 | 0.00 | 0.00 | 0.00 | 46 | 1006.8 |
| 20260901111505 | 17 | 173 | 0.0 | 0.0 | 0.00 | 0.00 | 0.00 | 47 | 1006.5 |
| 20260901110003 | 17 | 173 | 0.0 | 0.0 | 0.00 | 0.00 | 0.00 | 46 | 1006.6 |
| 20260901104516 | 17 | 173 | 0.0 | 0.0 | 0.00 | 0.00 | 0.00 | 46 | 1006.7 |
| 20260901103008 | 17 | 173 | 0.0 | 0.0 | 0.00 | 0.00 | 0.00 | 47 | 1006.7 |